Location: Middle Street
(51.7167°N, 0.0333°E)
Time: 19:45:37
(UTC+00:00)

Meteor 1-21 Rocket - Pass Details

Date: 20 January 2021
Orbit: 834 x 906 km, 81.2° (Epoch: 27 February)

Event Time Altitude Azimuth Distance (km) Brightness Sun altitude
Rises 18:12:14 0° 169° (SSE) 3,372 7.4 -15.7°
Reaches altitude 10° 18:14:43 10° 162° (SSE) 2,441 6.5 -16.1°
Maximum altitude 18:19:53 43° 93° (E) 1,165 4.5 -16.9°
Drops below altitude 10° 18:25:07 10° 24° (NNE) 2,469 6.3 -17.7°
Enters shadow 18:25:31 - 22° (NNE) 2,616 6.4 -17.7°
